Regional Weather Roundup
Issued by NWS

Home | Current Version | Previous Version | Graphics & Text | Print | Product List | Glossary Off
Versions: 1 2 3 4 5 6 7 8 9 10 11 12 13 14 15 16 17 18 19 20 21 22 23 24 25 26 27 28 29 30 31 32 33 34 35 36 37 38 39 40 41 42 43 44 45 46 47 48 49 50

000
ASUS43 KTOP 021608
RWRKS

WEATHER ROUNDUP FOR KANSAS
NATIONAL WEATHER SERVICE GOODLAND KS
1000 AM CST MON MAR 02 2015

NOTE:  "FAIR" INDICATES FEW OR NO CLOUDS BELOW 12,000 FEET WITH NO
SIGNIFICANT WEATHER AND/OR OBSTRUCTIONS TO VISIBILITY.

KSZ001>006-013>018-027>032-041>047-021700-
NORTHWEST KANSAS

CITY           SKY/WX    TMP DP  RH WIND       PRES   REMARKS
GOODLAND       CLOUDY    27  22  81 S21G28    30.15F WCI  13
HAYS           PTSUNNY   30  18  59 S20       30.33F WCI  18
HILL CITY      CLOUDY    31  19  61 S16G22    30.30F WCI  20
RUSSELL        PTSUNNY   32  22  66 S18       30.33F WCI  20
$$

KSZ061>065-074>080-084>089-021700-
SOUTHWEST KANSAS

CITY           SKY/WX    TMP DP  RH WIND       PRES   REMARKS
DODGE CITY     CLOUDY    27  22  81 S17       30.31R HAZE    WCI  14
ELKHART          N/A     27  19  72 S18         N/A  WCI  14
GARDEN CITY    CLOUDY    26  22  84 S16       30.25F WCI  14
GREAT BEND     PTSUNNY   28  21  74 S14       30.36F WCI  17
LIBERAL        CLOUDY    28  21  74 S16       30.28F WCI  17
PRATT          CLOUDY    28  23  80 SE9       30.36F
$$

KSZ066>073-081>083-090>101-021700-
SOUTHEAST KANSAS

CITY           SKY/WX    TMP DP  RH WIND       PRES   REMARKS
CHANUTE        MOSUNNY   32  22  66 E12       30.45F WCI  23
COFFEYVILLE    MOSUNNY   33  21  61 E9G20     30.45F
HUTCHINSON     PTSUNNY   31  22  69 S13       30.40F WCI  21
MEDICINE LODGE   N/A     29  22  75 SE8       30.39S
NEWTON         CLOUDY    27  18  69 SE9       30.41F
PARSONS        MOSUNNY   32  22  66 VRB7      30.46F
WICHITA INTL   CLOUDY    30  21  69 SE3       30.41F
WICHITA JABRA  CLOUDY    29  21  72 SE7       30.40F
WICHITA MCCONL PTSUNNY   29  21  73 E7        30.40F
WINFIELD       PTSUNNY   29  22  75 E10       30.41F WCI  20
$$

KSZ007>012-019>026-033>040-048>060-102>105-021700-
NORTHEAST KANSAS

CITY           SKY/WX    TMP DP  RH WIND       PRES   REMARKS
CONCORDIA      CLOUDY    33  20  58 S13       30.40F WCI  24
EMPORIA        PTSUNNY   30  24  78 SE9       30.45S
LAWRENCE       MOSUNNY   31  24  75 S7        30.49F
MANHATTAN      MOSUNNY   35  25  66 SE10      30.45F WCI  27
MARYSVILLE     PTSUNNY   36  23  60 S9        30.43F
OLATHE IND     MOSUNNY   31  24  75 E9        30.48S
OLATHE EXE     FAIR      31  24  75 E9        30.46F
SALINA         PTSUNNY   34  23  64 S17       30.42F WCI  23
TOPEKA BILLARD MOSUNNY   34  24  67 SE7       30.48F
TOPEKA FORBES  FAIR      32  25  75 SE6       30.46F
$$


USA.gov is the U.S. government's official web portal to all federal, state and local government web resources and services.